Location: Peebles
(55.6412°N, 3.1714°W)
Time: 09:26:34
(UTC+01:00)

IRIDIUM 33 DEB - Visible Passes

Search period start: 26 June 2022 00:00
Search period end: 06 July 2022 00:00
Orbit: 582 x 645 km, 86.4° (Epoch: 25 June)

Date Brightness Start Highest point End Pass type
(mag) Time Alt. Az. Time Alt. Az. Time Alt. Az.
26 Jun ? 02:55:56 10° N 02:59:47 34° ENE 03:03:37 10° SE visible
27 Jun ? 03:11:21 10° N 03:15:28 51° E 03:19:34 10° SSE visible
28 Jun ? 01:51:00 10° NE 01:52:59 13° ENE 01:54:57 10° E visible
28 Jun ? 03:26:50 10° N 03:31:04 81° E 03:35:16 10° S visible
29 Jun ? 02:05:47 10° NNE 02:08:48 19° ENE 02:11:48 10° ESE visible
30 Jun ? 02:20:54 10° NNE 02:24:31 27° ENE 02:28:07 10° SE visible
01 Jul ? 02:36:08 10° N 02:40:07 40° ENE 02:44:06 10° SSE visible
02 Jul ? 01:16:40 10° NE 01:17:24 10° ENE 01:18:07 10° ENE visible
02 Jul ? 02:51:27 10° N 02:55:39 62° E 02:59:49 10° SSE visible
03 Jul ? 01:30:39 10° NNE 01:33:08 15° ENE 01:35:39 10° ESE visible
03 Jul ? 03:06:50 10° N 03:11:04 85° W 03:15:18 10° S visible
04 Jul ? 01:45:28 10° NNE 01:48:46 22° ENE 01:52:05 10° ESE visible
04 Jul ? 03:22:17 10° NNW 03:26:24 55° W 03:30:33 10° SSW visible
05 Jul ? 02:00:31 10° N 02:04:19 32° ENE 02:08:08 10° SE visible
